Find Starlink 30784

NORAD ID: 58156 Int'l Des: 2023-166 Owner: SPXS Country: US Constellation: starlink operational
LEOCIRCULAR

当前视图

正在加载3D地球...

About Starlink 30784

Starlink 30784 (NORAD 58156) is a starlink constellation satellite (v2 mini) launched Oct 29, 2023 by SPXS of US. It operates in LEO, CIRCULAR orbit with a mass of 730.00 kg.

关于 Starlink 30784

正在加载描述...

即将过境

Passes for default location (London). Set your location on the main map for personalized predictions.

高度历史

Loading altitude history...

两行轨道根数

1 58156U 23166G 26170.11666571 .00000481 00000-0 28351-4 0 9998
2 58156 53.1599 108.8066 0001259 81.2060 278.9083 15.30198106148556
Epoch: Jun 19, 2026 • Age: 8 hours

当前状态

高度 478.1 km
速度 7.63 km/s
星下点 -10.12°S, 33.25°E
发射日期 Oct 29, 2023
运行时间 2.6 years
类型 internet

技术详情

分类 Payload
质量 730.00 kg
干质量 700.00 kg
总质量 730.00 kg
长度 0.30 m
直径 4.10 m
跨度 29.00 m
形状 Box + pan
制造商 SPXS
平台类型 Starlink V2M
阶段状态 In Orbit
所有者/国家 SPXS/US

Most Searched